Flag for Canada

Past Weather in London, Ontario, Canada — Yesterday and Last 2 Weeks

Now
82 °F

Partly sunny.


Feels Like: 86 °F
Forecast: N/A
Wind: 6 mph from West

Location: London Weather Station

Current Time: Jul 8, 2020 at 7:19:46 pm

Latest Report: Jul 8, 2020 at 6:00 pm


Visibility: 15 mi

Pressure: 29.91 "Hg

Humidity: 66%

Dew Point: 70 °F

Location of LondonLocation

Past Weather in London — Graph

°F

London Temperature Yesterday

Maximum temperature yesterday: 91 °F (at 4:00 pm)
Minimum temperature yesterday: 63 °F (at 6:00 am)
Average temperature yesterday: 78 °F

High & Low Weather Summary for the Past Weeks

 TemperatureHumidityPressure
High91 °F (Jul 6, 4:00 pm)100% (Jun 25, 4:00 am)30.03 "Hg (Jun 25, 4:00 am)
Low50 °F (Jun 25, 4:00 am)27% (Jul 5, 4:00 pm)29.53 "Hg (Jun 23, 6:00 pm)
Average73 °F69%29.92 "Hg
* Reported Jun 23 6:00 pm — Jul 8 6:00 pm, London. Weather by CustomWeather, © 2020

Note: Actual official high and low records may vary slightly from our data, if they occured in-between our weather recording intervals... More about our weather records

London Weather History for the Previous 24 Hours

Scroll right to see more
 ConditionsComfort  
Time TempWeatherWind HumidityBarometerVisibility
6:00 pm
Wed, Jul 8
82 °FPartly sunny.6 mph66%29.91 "Hg15 mi
5:00 pm82 °FPartly sunny.8 mph66%29.93 "Hg15 mi
4:45 pm81 °FBroken clouds.9 mph70%29.93 "Hg15 mi
4:24 pm81 °FSprinkles. Partly sunny.7 mph70%29.92 "Hg15 mi
4:08 pm82 °FPartly sunny.18 mph66%29.92 "Hg15 mi
3:00 pm90 °FPartly sunny.6 mph52%29.92 "Hg15 mi
2:00 pm90 °FPartly sunny.8 mph52%29.94 "Hg15 mi
1:00 pm88 °FPartly sunny.8 mph55%29.95 "Hg15 mi
12:00 pm88 °FScattered clouds.6 mph55%29.96 "Hg15 mi
11:00 am84 °FPassing clouds.7 mph62%29.95 "Hg15 mi
10:00 am81 °FScattered clouds.3 mph66%29.95 "Hg15 mi
9:00 am79 °FScattered clouds.7 mph70%29.96 "Hg15 mi
8:00 am77 °FBroken clouds.5 mph74%29.97 "Hg15 mi
7:00 am72 °FPartly sunny.2 mph88%29.96 "Hg10 mi
6:00 am68 °FScattered clouds.3 mph94%29.94 "Hg10 mi
5:00 am70 °FPassing clouds.3 mph88%29.94 "Hg15 mi
4:00 am72 °FPassing clouds.No wind88%29.92 "Hg15 mi
3:00 am72 °FPassing clouds.2 mph88%29.94 "Hg15 mi
2:00 am73 °FPassing clouds.6 mph83%29.93 "Hg15 mi
1:00 am75 °FPartly cloudy.5 mph78%29.96 "Hg15 mi
12:00 am77 °FPartly cloudy.6 mph69%29.94 "Hg15 mi
11:00 pm
Tue, Jul 7
79 °FPassing clouds.7 mph65%29.92 "Hg15 mi
10:00 pm79 °FPartly cloudy.6 mph65%29.93 "Hg15 mi
9:00 pm79 °FBroken clouds.8 mph65%29.92 "Hg15 mi
8:00 pm79 °FBroken clouds.6 mph65%29.93 "Hg15 mi
7:00 pm84 °FScattered clouds.7 mph58%29.91 "Hg15 mi
Weather by CustomWeather, © 2020

See weather overview